Location: Lalanga
(4.5882°N, 32.9072°E)
Time: 18:05:07
(UTC+00:00)

CSL-04 Rocket - Pass Details

Date: 24 January 2020
Orbit: 806 x 860 km, 99.0° (Epoch: 26 February)

Event Time Altitude Azimuth Distance (km) Brightness Sun altitude
Rises 16:50:54 0° 166° (SSE) 3,359 6.9 -13.4°
Reaches altitude 10° 16:53:14 10° 166° (SSE) 2,433 6.1 -14.0°
Maximum altitude 16:58:38 85° 79° (ENE) 844 3.6 -15.2°
Drops below altitude 10° 17:04:07 10° 349° (N) 2,462 6.0 -16.5°
Sets 17:06:29 0° 349° (NNW) 3,402 6.8 -17.1°
